User: anonymous   Login
Location: Caltech
(34.1382°N, 118.1253°W)
Time: 01:18:05
(UTC-08:00)
Language:

Cosmos 2084 - Orbit

View from above orbital plane
View from above orbital plane
View from above satellite
View from above satellite

Ground track
Ground track

The orbit data is extracted from the following two-line orbital elements,

1 20663U 90055A   14327.51925635  .00002179  00000-0  24069-3 0  2850
2 20663 062.7969 110.6039 0049479 335.3243 024.5483 14.89616840320158
Epoch (UTC): 23 November 2014 12:27:43
Eccentricity: 0.0049479
inclination: 62.7969°
perigee height: 564 km
apogee height: 633 km
right ascension of ascending node: 110.6039°
argument of perigee: 335.3243°
revolutions per day: 14.89616840
mean anomaly at epoch: 24.5483°
orbit number at epoch: 32015

The dashed part of the orbit path shows where the satellite is in the earth's shadow,  

DLR